| time (UTC) | temp F | wind direction | speed MPH | gust MPH | rain 1hr in | rain 24hr in | rain mn in | humidity % | barometer mb |
| 20260505124503 | 65 | 228 | 6.0 | 14.0 | 0.00 | 0.00 | 0.00 | 61 | 1011.4 |
| 20260505123624 | 64 | 223 | 7.0 | 15.0 | 0.00 | 0.00 | 0.00 | 61 | 1011.3 |
| 20260505122703 | 64 | 227 | 7.0 | 15.0 | 0.00 | 0.00 | 0.00 | 62 | 1011.4 |
| 20260505121803 | 63 | 232 | 7.0 | 15.0 | 0.00 | 0.00 | 0.00 | 63 | 1011.3 |
| 20260505120902 | 62 | 221 | 6.0 | 11.0 | 0.00 | 0.00 | 0.00 | 63 | 1011.3 |
| 20260505120003 | 61 | 213 | 5.0 | 11.0 | 0.00 | 0.00 | 0.00 | 65 | 1011.1 |
| 20260505115402 | 60 | 217 | 5.0 | 11.0 | 0.00 | 0.00 | 0.00 | 67 | 1011.1 |
| 20260505114523 | 60 | 211 | 6.0 | 12.0 | 0.00 | 0.00 | 0.00 | 67 | 1010.9 |
| 20260505113603 | 59 | 213 | 7.0 | 12.0 | 0.00 | 0.00 | 0.00 | 67 | 1010.8 |
| 20260505112724 | 59 | 212 | 7.0 | 12.0 | 0.00 | 0.00 | 0.00 | 68 | 1010.8 |
| 20260505111803 | 58 | 213 | 7.0 | 12.0 | 0.00 | 0.00 | 0.00 | 68 | 1010.8 |
| 20260505110924 | 58 | 216 | 7.0 | 12.0 | 0.00 | 0.00 | 0.00 | 68 | 1010.6 |
| 20260505101823 | 58 | 214 | 7.0 | 10.0 | 0.00 | 0.00 | 0.00 | 68 | 1010.0 |
| 20260505100903 | 58 | 214 | 6.0 | 9.0 | 0.00 | 0.00 | 0.00 | 68 | 1009.9 |
| 20260505100003 | 58 | 213 | 6.0 | 11.0 | 0.00 | 0.00 | 0.00 | 68 | 1009.8 |
| 20260505095403 | 58 | 215 | 7.0 | 11.0 | 0.00 | 0.00 | 0.00 | 68 | 1009.8 |
| 20260505094503 | 58 | 215 | 7.0 | 11.0 | 0.00 | 0.00 | 0.00 | 68 | 1009.8 |
| 20260505093604 | 58 | 213 | 7.0 | 11.0 | 0.00 | 0.00 | 0.00 | 68 | 1009.9 |
| 20260505092703 | 59 | 213 | 7.0 | 11.0 | 0.00 | 0.00 | 0.00 | 68 | 1009.8 |
| 20260505091802 | 59 | 213 | 7.0 | 14.0 | 0.00 | 0.00 | 0.00 | 68 | 1009.7 |
| 20260505090903 | 59 | 213 | 7.0 | 14.0 | 0.00 | 0.00 | 0.00 | 68 | 1009.6 |
| 20260505090003 | 59 | 209 | 8.0 | 17.0 | 0.00 | 0.00 | 0.00 | 68 | 1009.5 |
| 20260505085402 | 59 | 205 | 8.0 | 17.0 | 0.00 | 0.00 | 0.00 | 68 | 1009.6 |
| 20260505084502 | 60 | 199 | 8.0 | 15.0 | 0.00 | 0.00 | 0.00 | 67 | 1009.5 |
| 20260505083624 | 60 | 200 | 8.0 | 15.0 | 0.00 | 0.00 | 0.00 | 67 | 1009.6 |
| 20260505082703 | 60 | 203 | 7.0 | 13.0 | 0.00 | 0.00 | 0.00 | 67 | 1009.6 |
| 20260505081803 | 60 | 209 | 6.0 | 11.0 | 0.00 | 0.00 | 0.00 | 67 | 1009.6 |
| 20260505080902 | 60 | 211 | 6.0 | 11.0 | 0.00 | 0.00 | 0.00 | 66 | 1009.5 |
| 20260505080002 | 61 | 211 | 6.0 | 12.0 | 0.00 | 0.00 | 0.00 | 66 | 1009.4 |
| 20260505075402 | 61 | 212 | 6.0 | 12.0 | 0.00 | 0.00 | 0.00 | 66 | 1009.5 |
| 20260505074504 | 61 | 213 | 7.0 | 12.0 | 0.00 | 0.00 | 0.00 | 65 | 1009.3 |
| 20260505073625 | 61 | 209 | 7.0 | 12.0 | 0.00 | 0.00 | 0.00 | 65 | 1009.3 |
| 20260505072702 | 61 | 211 | 7.0 | 11.0 | 0.00 | 0.00 | 0.00 | 65 | 1009.3 |
| 20260505071802 | 61 | 210 | 7.0 | 11.0 | 0.00 | 0.00 | 0.00 | 65 | 1009.3 |
| 20260505070902 | 61 | 211 | 7.0 | 13.0 | 0.00 | 0.00 | 0.00 | 65 | 1009.3 |
| 20260505070003 | 61 | 213 | 7.0 | 13.0 | 0.00 | 0.00 | 0.00 | 65 | 1009.4 |
| 20260505065402 | 61 | 213 | 6.0 | 13.0 | 0.00 | 0.00 | 0.00 | 65 | 1009.4 |
| 20260505064503 | 61 | 210 | 6.0 | 13.0 | 0.00 | 0.00 | 0.00 | 65 | 1009.4 |
| 20260505063603 | 61 | 211 | 6.0 | 12.0 | 0.00 | 0.00 | 0.00 | 65 | 1009.5 |
| 20260505062702 | 61 | 209 | 6.0 | 10.0 | 0.00 | 0.00 | 0.00 | 65 | 1009.5 |
| 20260505061803 | 61 | 209 | 5.0 | 9.0 | 0.00 | 0.00 | 0.00 | 65 | 1009.6 |
| 20260505060902 | 61 | 208 | 5.0 | 9.0 | 0.00 | 0.00 | 0.00 | 64 | 1009.6 |
| 20260505060003 | 62 | 210 | 6.0 | 10.0 | 0.00 | 0.00 | 0.00 | 64 | 1009.6 |
| 20260505055424 | 62 | 208 | 6.0 | 10.0 | 0.00 | 0.00 | 0.00 | 63 | 1009.5 |
| 20260505054503 | 62 | 207 | 6.0 | 10.0 | 0.00 | 0.00 | 0.00 | 62 | 1009.6 |
| 20260505053603 | 63 | 217 | 7.0 | 14.0 | 0.00 | 0.00 | 0.00 | 62 | 1009.5 |
| 20260505052703 | 63 | 218 | 7.0 | 14.0 | 0.00 | 0.00 | 0.00 | 62 | 1009.6 |
| 20260505051803 | 62 | 215 | 7.0 | 15.0 | 0.00 | 0.00 | 0.00 | 63 | 1009.6 |
| 20260505050903 | 63 | 214 | 7.0 | 13.0 | 0.00 | 0.00 | 0.00 | 63 | 1009.5 |
| 20260505040902 | 64 | 208 | 6.0 | 12.0 | 0.00 | 0.00 | 0.00 | 59 | 1009.4 |
| 20260505040003 | 64 | 213 | 7.0 | 16.0 | 0.00 | 0.00 | 0.00 | 59 | 1009.5 |
| 20260505035402 | 65 | 217 | 8.0 | 13.0 | 0.00 | 0.00 | 0.00 | 58 | 1009.5 |
| 20260505034502 | 65 | 216 | 8.0 | 16.0 | 0.00 | 0.00 | 0.00 | 58 | 1009.4 |
| 20260505033602 | 65 | 219 | 7.0 | 14.0 | 0.00 | 0.00 | 0.00 | 57 | 1009.4 |
| 20260505032703 | 64 | 214 | 7.0 | 14.0 | 0.00 | 0.00 | 0.00 | 57 | 1009.4 |
| 20260505031803 | 64 | 214 | 7.0 | 14.0 | 0.00 | 0.00 | 0.00 | 57 | 1009.4 |
| 20260505030903 | 65 | 215 | 7.0 | 11.0 | 0.00 | 0.00 | 0.00 | 57 | 1009.4 |
| 20260505030003 | 65 | 214 | 7.0 | 15.0 | 0.00 | 0.00 | 0.00 | 56 | 1009.4 |
| 20260505025403 | 65 | 214 | 7.0 | 12.0 | 0.00 | 0.00 | 0.00 | 56 | 1009.5 |
| 20260505024502 | 65 | 212 | 7.0 | 11.0 | 0.00 | 0.00 | 0.00 | 56 | 1009.5 |
| 20260505023603 | 65 | 211 | 6.0 | 10.0 | 0.00 | 0.00 | 0.00 | 56 | 1009.6 |
| 20260505022702 | 65 | 207 | 5.0 | 10.0 | 0.00 | 0.00 | 0.00 | 56 | 1009.6 |
| 20260505021803 | 65 | 208 | 5.0 | 9.0 | 0.00 | 0.00 | 0.00 | 55 | 1009.5 |
| 20260505020902 | 66 | 208 | 5.0 | 9.0 | 0.00 | 0.00 | 0.00 | 54 | 1009.6 |
| 20260505020003 | 66 | 200 | 5.0 | 9.0 | 0.00 | 0.00 | 0.00 | 54 | 1009.4 |
| 20260505015402 | 66 | 204 | 5.0 | 9.0 | 0.00 | 0.00 | 0.00 | 53 | 1009.4 |
| 20260505014504 | 66 | 208 | 5.0 | 10.0 | 0.00 | 0.00 | 0.00 | 53 | 1009.6 |
| 20260505013602 | 67 | 213 | 6.0 | 10.0 | 0.00 | 0.00 | 0.00 | 53 | 1009.5 |
| 20260505012703 | 66 | 213 | 6.0 | 11.0 | 0.00 | 0.00 | 0.00 | 52 | 1009.4 |
| 20260505011803 | 66 | 207 | 5.0 | 10.0 | 0.00 | 0.00 | 0.00 | 52 | 1009.2 |
| 20260505010904 | 67 | 210 | 6.0 | 10.0 | 0.00 | 0.00 | 0.00 | 52 | 1009.1 |
| 20260505010003 | 67 | 202 | 5.0 | 11.0 | 0.00 | 0.00 | 0.00 | 51 | 1009.0 |
| 20260505005403 | 67 | 202 | 5.0 | 10.0 | 0.00 | 0.00 | 0.00 | 51 | 1009.0 |
| 20260505004502 | 67 | 203 | 5.0 | 9.0 | 0.00 | 0.00 | 0.00 | 50 | 1008.9 |
| 20260505003602 | 67 | 202 | 5.0 | 8.0 | 0.00 | 0.00 | 0.00 | 50 | 1008.9 |
| 20260505002703 | 68 | 208 | 5.0 | 11.0 | 0.00 | 0.00 | 0.00 | 50 | 1008.9 |
| 20260505001803 | 68 | 209 | 6.0 | 11.0 | 0.00 | 0.00 | 0.00 | 49 | 1009.0 |
| 20260505000903 | 68 | 211 | 6.0 | 11.0 | 0.00 | 0.00 | 0.00 | 48 | 1008.8 |
| 20260505000003 | 68 | 209 | 6.0 | 11.0 | 0.00 | 0.00 | 0.00 | 47 | 1008.8 |
| 20260504235403 | 69 | 208 | 6.0 | 10.0 | 0.00 | 0.00 | 0.00 | 47 | 1008.7 |
| 20260504234523 | 69 | 211 | 6.0 | 14.0 | 0.00 | 0.00 | 0.00 | 30 | 1008.7 |
| 20260504233602 | 70 | 210 | 8.0 | 14.0 | 0.00 | 0.00 | 0.00 | 45 | 1008.6 |
| 20260504232723 | 71 | 213 | 7.0 | 14.0 | 0.00 | 0.00 | 0.00 | 29 | 1008.6 |
| 20260504231802 | 71 | 215 | 7.0 | 14.0 | 0.00 | 0.00 | 0.00 | 29 | 1008.6 |
| 20260504230903 | 72 | 212 | 6.0 | 14.0 | 0.00 | 0.00 | 0.00 | 43 | 1008.6 |
| 20260504230003 | 72 | 207 | 7.0 | 18.0 | 0.00 | 0.00 | 0.00 | 28 | 1008.6 |
| 20260504225402 | 72 | 209 | 8.0 | 18.0 | 0.00 | 0.00 | 0.00 | 26 | 1008.5 |
| 20260504224503 | 72 | 213 | 8.0 | 18.0 | 0.00 | 0.00 | 0.00 | 44 | 1008.6 |
| 20260504223603 | 72 | 203 | 7.0 | 14.0 | 0.00 | 0.00 | 0.00 | 29 | 1008.5 |
| 20260504222703 | 73 | 204 | 8.0 | 15.0 | 0.00 | 0.00 | 0.00 | 42 | 1008.5 |
| 20260504221803 | 72 | 207 | 7.0 | 18.0 | 0.00 | 0.00 | 0.00 | 42 | 1008.4 |
| 20260504220903 | 72 | 208 | 7.0 | 18.0 | 0.00 | 0.00 | 0.00 | 43 | 1008.2 |
| 20260504220003 | 72 | 224 | 7.0 | 15.0 | 0.00 | 0.00 | 0.00 | 43 | 1008.5 |
| 20260504215403 | 73 | 229 | 8.0 | 15.0 | 0.00 | 0.00 | 0.00 | 43 | 1008.6 |
| 20260504214503 | 73 | 195 | 7.0 | 15.0 | 0.00 | 0.00 | 0.00 | 41 | 1008.5 |
| 20260504213603 | 73 | 216 | 7.0 | 16.0 | 0.00 | 0.00 | 0.00 | 42 | 1008.5 |
| 20260504212703 | 73 | 218 | 9.0 | 16.0 | 0.00 | 0.00 | 0.00 | 42 | 1008.7 |
| 20260504211824 | 73 | 224 | 7.0 | 16.0 | 0.00 | 0.00 | 0.00 | 42 | 1008.7 |
| 20260504210903 | 73 | 216 | 8.0 | 18.0 | 0.00 | 0.00 | 0.00 | 43 | 1008.8 |
| 20260504210003 | 73 | 222 | 9.0 | 18.0 | 0.00 | 0.00 | 0.00 | 43 | 1008.7 |
| 20260504205403 | 72 | 216 | 10.0 | 18.0 | 0.00 | 0.00 | 0.00 | 43 | 1008.7 |
| 20260504204524 | 73 | 228 | 8.0 | 16.0 | 0.00 | 0.00 | 0.00 | 43 | 1008.6 |
| 20260504203602 | 73 | 218 | 8.0 | 17.0 | 0.00 | 0.00 | 0.00 | 45 | 1008.8 |
| 20260504202724 | 73 | 221 | 8.0 | 17.0 | 0.00 | 0.00 | 0.00 | 44 | 1008.7 |
| 20260504201803 | 72 | 222 | 9.0 | 17.0 | 0.00 | 0.00 | 0.00 | 44 | 1008.9 |
| 20260504200902 | 72 | 242 | 9.0 | 17.0 | 0.00 | 0.00 | 0.00 | 45 | 1009.1 |
| 20260504200003 | 72 | 251 | 7.0 | 17.0 | 0.00 | 0.00 | 0.00 | 45 | 1009.4 |
| 20260504195403 | 72 | 225 | 6.0 | 17.0 | 0.00 | 0.00 | 0.00 | 44 | 1009.4 |
| 20260504194524 | 71 | 214 | 8.0 | 18.0 | 0.00 | 0.00 | 0.00 | 31 | 1009.5 |
| 20260504193604 | 71 | 234 | 8.0 | 23.0 | 0.00 | 0.00 | 0.00 | 46 | 1009.6 |
| 20260504192703 | 71 | 215 | 10.0 | 23.0 | 0.00 | 0.00 | 0.00 | 47 | 1009.8 |
| 20260504191803 | 71 | 232 | 8.0 | 15.0 | 0.00 | 0.00 | 0.00 | 29 | 1010.1 |
| 20260504190903 | 71 | 226 | 8.0 | 15.0 | 0.00 | 0.00 | 0.00 | 49 | 1010.1 |
| 20260504190003 | 71 | 223 | 7.0 | 14.0 | 0.00 | 0.00 | 0.00 | 28 | 1010.3 |
| 20260504185403 | 71 | 220 | 6.0 | 13.0 | 0.00 | 0.00 | 0.00 | 31 | 1010.5 |
| 20260504184503 | 71 | 229 | 6.0 | 15.0 | 0.00 | 0.00 | 0.00 | 46 | 1010.5 |
| 20260504183624 | 70 | 214 | 8.0 | 15.0 | 0.00 | 0.00 | 0.00 | 43 | 1010.8 |
| 20260504182703 | 70 | 212 | 7.0 | 15.0 | 0.00 | 0.00 | 0.00 | 46 | 1010.8 |
| 20260504181803 | 70 | 218 | 8.0 | 16.0 | 0.00 | 0.00 | 0.00 | 44 | 1010.9 |
| 20260504180903 | 69 | 211 | 7.0 | 17.0 | 0.00 | 0.00 | 0.00 | 46 | 1011.1 |
| 20260504180002 | 69 | 221 | 8.0 | 18.0 | 0.00 | 0.00 | 0.00 | 48 | 1011.2 |
| 20260504175423 | 69 | 228 | 9.0 | 18.0 | 0.00 | 0.00 | 0.00 | 44 | 1010.9 |
| 20260504174503 | 68 | 242 | 7.0 | 18.0 | 0.00 | 0.00 | 0.00 | 45 | 1011.2 |
| 20260504173603 | 68 | 233 | 9.0 | 18.0 | 0.00 | 0.00 | 0.00 | 46 | 1011.3 |
| 20260504172702 | 68 | 225 | 9.0 | 18.0 | 0.00 | 0.00 | 0.00 | 45 | 1011.4 |
| 20260504171803 | 68 | 238 | 8.0 | 15.0 | 0.00 | 0.00 | 0.00 | 46 | 1011.6 |
| 20260504170903 | 68 | 250 | 7.0 | 16.0 | 0.00 | 0.00 | 0.00 | 33 | 1011.7 |
| 20260504150903 | 64 | 261 | 8.0 | 16.0 | 0.00 | 0.00 | 0.00 | 48 | 1013.0 |